FW2321 Weather Reports


Display with metric or nautical units.
time (UTC)temp
F
wind
direction
speed
MPH
gust
MPH
rain 1hr
in
rain 24hr
in
rain mn
in
humidity
%
barometer
mb
20260831001040 71 207 3.0 6.0 0.00 0.57 0.57 97 1013.6
20260831000534 71 181 2.0 6.0 0.00 0.57 0.57 97 1013.5
20260831000113 71 180 2.0 6.0 0.00 0.57 0.57 97 1013.4
20260830235534 71 179 1.0 7.0 0.00 0.57 0.57 97 1013.3
20260830235033 71 173 1.0 7.0 0.00 0.57 0.57 97 1013.4
20260830234557 71 198 2.0 5.0 0.00 0.57 0.57 97 1013.4
20260830234033 71 205 3.0 5.0 0.00 0.57 0.57 96 1013.3
20260830233533 71 195 3.0 6.0 0.00 0.57 0.57 96 1013.3
20260830233055 71 212 3.0 8.0 0.00 0.57 0.57 96 1013.3
20260830232533 71 202 2.0 8.0 0.00 0.57 0.57 96 1013.3
20260830232032 71 215 2.0 8.0 0.00 0.57 0.57 96 1013.3
20260830231556 72 220 3.0 8.0 0.00 0.57 0.57 96 1013.2
20260830231035 72 209 3.0 9.0 0.00 0.57 0.57 96 1013.2
20260830230532 72 198 4.0 12.0 0.00 0.57 0.57 96 1013.2
20260830225533 72 208 6.0 11.0 0.00 0.57 0.57 96 1013.2
20260830225033 72 205 4.0 11.0 0.00 0.57 0.57 96 1013.3
20260830224553 72 205 6.0 11.0 0.00 0.57 0.57 96 1013.3
20260830224035 72 217 6.0 16.0 0.00 0.57 0.57 95 1013.3
20260830223534 72 198 6.0 16.0 0.00 0.57 0.57 96 1013.2
20260830223129 72 222 4.0 10.0 0.00 0.57 0.57 96 1013.2
20260830222532 72 213 3.0 8.0 0.00 0.57 0.57 96 1013.2
20260830222034 72 232 4.0 9.0 0.00 0.57 0.57 96 1013.3
20260830221604 72 198 3.0 9.0 0.00 0.57 0.57 96 1013.4
20260830221038 71 204 4.0 9.0 0.00 0.57 0.57 97 1013.4
20260830220532 71 221 4.0 7.0 0.01 0.57 0.57 97 1013.3
20260830220106 71 186 2.0 6.0 0.01 0.57 0.57 97 1013.4
20260830215536 71 198 2.0 6.0 0.01 0.57 0.57 98 1013.4
20260830215034 71 209 2.0 5.0 0.02 0.57 0.57 98 1013.4
20260830214553 71 216 2.0 5.0 0.02 0.57 0.57 98 1013.3
20260830214037 71 0 0.0 3.0 0.03 0.57 0.57 98 1013.4
20260830213533 71 0 0.0 3.0 0.04 0.57 0.57 98 1013.3
20260830213056 71 0 0.0 3.0 0.04 0.57 0.57 98 1013.3
20260830212534 71 0 0.0 5.0 0.04 0.57 0.57 98 1013.4
20260830212033 71 0 0.0 7.0 0.04 0.57 0.57 98 1013.2
20260830211555 71 285 3.0 7.0 0.05 0.57 0.57 98 1013.3
20260830211036 71 0 2.0 7.0 0.05 0.57 0.57 98 1013.0
20260830210533 70 186 3.0 7.0 0.04 0.56 0.56 98 1012.9
20260830210056 70 193 3.0 6.0 0.04 0.56 0.56 98 1013.1
20260830205533 70 221 2.0 4.0 0.04 0.57 0.56 98 1013.2
20260830205036 70 290 2.0 4.0 0.03 0.56 0.55 97 1013.3
20260830204600 70 0 0.0 2.0 0.02 0.55 0.54 97 1013.3
20260830204037 70 0 0.0 3.0 0.02 0.55 0.54 97 1013.5
20260830203537 71 319 0.0 3.0 0.01 0.54 0.52 97 1013.4
20260830203100 71 0 1.0 8.0 0.01 0.54 0.52 97 1013.5
20260830202539 71 321 2.0 8.0 0.02 0.54 0.52 97 1013.4
20260830202037 71 279 3.0 12.0 0.02 0.54 0.52 96 1013.5
20260830201554 71 206 4.0 12.0 0.01 0.52 0.52 96 1013.4
20260830201037 71 206 4.0 10.0 0.01 0.52 0.52 96 1013.5
20260830200538 71 210 4.0 12.0 0.01 0.52 0.52 96 1013.5
20260830200054 71 223 5.0 12.0 0.02 0.52 0.52 95 1013.8
20260830195540 71 273 4.0 10.0 0.02 0.52 0.52 95 1013.9
20260830195037 71 197 4.0 10.0 0.04 0.52 0.52 95 1013.7
20260830194608 72 218 3.0 10.0 0.04 0.52 0.52 94 1013.8
20260830194037 72 229 5.0 10.0 0.04 0.52 0.52 94 1014.0
20260830193536 72 198 3.0 16.0 0.04 0.52 0.52 93 1013.9
20260830193104 73 205 4.0 16.0 0.04 0.52 0.52 92 1014.0
20260830192537 73 221 4.0 13.0 0.03 0.52 0.51 92 1014.2
20260830192040 73 226 3.0 13.0 0.03 0.52 0.51 92 1014.2
20260830191553 73 267 4.0 9.0 0.03 0.52 0.51 91 1014.3
20260830191037 74 226 4.0 13.0 0.03 0.52 0.51 91 1014.1
20260830190537 74 209 4.0 14.0 0.03 0.52 0.51 90 1013.9
20260830190054 74 219 4.0 14.0 0.02 0.51 0.50 89 1014.0
20260830185537 76 213 3.0 16.0 0.02 0.51 0.50 86 1013.9
20260830185037 77 202 7.0 16.0 0.00 0.49 0.48 83 1013.9
20260830184604 78 205 5.0 15.0 0.00 0.49 0.48 81 1013.7
20260830184037 78 138 6.0 16.0 0.00 0.49 0.48 80 1013.6
20260830183541 79 221 6.0 19.0 0.00 0.49 0.48 80 1013.6
20260830183103 79 234 8.0 19.0 0.00 0.49 0.48 79 1013.4
20260830182537 79 279 6.0 18.0 0.00 0.49 0.48 79 1013.4
20260830182034 78 221 8.0 19.0 0.00 0.49 0.48 79 1013.4
20260830181554 79 215 6.0 19.0 0.00 0.49 0.48 79 1013.4
20260830181041 80 204 8.0 21.0 0.00 0.49 0.48 77 1013.2
20260830180537 80 209 10.0 22.0 0.00 0.49 0.48 76 1013.1
20260830180054 80 215 9.0 22.0 0.00 0.49 0.48 76 1013.0
20260830175537 81 180 7.0 19.0 0.00 0.49 0.48 76 1013.0
20260830175038 81 268 8.0 19.0 0.00 0.49 0.48 75 1012.9
20260830174601 81 207 6.0 19.0 0.00 0.49 0.48 74 1012.9
20260830174037 81 212 7.0 19.0 0.00 0.49 0.48 73 1012.7
20260830173536 81 178 8.0 18.0 0.00 0.49 0.48 73 1012.4
20260830173102 82 274 9.0 18.0 0.00 0.49 0.48 72 1012.6
20260830172537 82 222 6.0 16.0 0.00 0.49 0.48 72 1012.5
20260830172038 82 209 7.0 16.0 0.00 0.49 0.48 73 1012.5
20260830171621 83 204 8.0 16.0 0.00 0.49 0.48 71 1012.6
20260830171036 83 207 7.0 16.0 0.00 0.49 0.48 71 1012.7
20260830170536 83 279 6.0 13.0 0.00 0.49 0.48 73 1012.6
20260830165537 83 182 7.0 16.0 0.00 0.49 0.48 73 1012.6
20260830165037 83 202 6.0 20.0 0.00 0.49 0.48 72 1012.7
20260830164554 82 150 6.0 20.0 0.00 0.49 0.48 72 1012.5
20260830164037 83 212 7.0 20.0 0.00 0.49 0.48 73 1012.8
20260830163537 82 181 6.0 20.0 0.00 0.49 0.48 73 1012.9
20260830163059 82 233 6.0 17.0 0.00 0.49 0.48 73 1012.8
20260830162537 82 217 6.0 17.0 0.00 0.49 0.48 72 1012.8
20260830162039 82 192 7.0 16.0 0.00 0.49 0.48 74 1012.9
20260830161557 81 215 7.0 16.0 0.00 0.49 0.48 75 1012.7
20260830161035 81 219 6.0 13.0 0.00 0.49 0.48 75 1012.7
20260830160539 81 206 6.0 16.0 0.00 0.49 0.48 76 1012.7
20260830160056 81 219 8.0 18.0 0.00 0.49 0.48 76 1012.9
20260830155537 81 189 7.0 18.0 0.00 0.49 0.48 74 1013.0
20260830155037 81 207 5.0 19.0 0.00 0.49 0.48 75 1012.9
20260830154551 81 236 7.0 19.0 0.00 0.49 0.48 74 1013.0
20260830154035 81 200 3.0 10.0 0.00 0.49 0.48 78 1013.0
20260830153537 81 212 3.0 8.0 0.00 0.49 0.48 79 1013.0
20260830153100 80 262 1.0 8.0 0.00 0.49 0.48 80 1012.9
20260830152537 80 203 2.0 8.0 0.00 0.49 0.48 81 1012.8
20260830152038 80 229 2.0 11.0 0.00 0.49 0.48 80 1012.9
20260830151608 79 203 3.0 11.0 0.00 0.49 0.48 80 1012.9
20260830151037 79 176 3.0 10.0 0.00 0.49 0.48 80 1012.9
20260830150536 79 255 3.0 11.0 0.00 0.49 0.48 81 1012.8
20260830145534 78 169 6.0 11.0 0.00 0.49 0.48 80 1012.7
20260830145038 78 203 5.0 11.0 0.00 0.49 0.48 81 1012.6
20260830144603 77 213 3.0 16.0 0.00 0.49 0.48 83 1012.7
20260830144037 77 203 4.0 16.0 0.00 0.49 0.48 81 1012.6
20260830143536 77 213 6.0 15.0 0.00 0.49 0.48 81 1012.6
20260830143103 76 189 5.0 10.0 0.00 0.49 0.48 83 1012.4
20260830142539 76 207 4.0 16.0 0.00 0.49 0.48 84 1012.4
20260830142042 75 192 5.0 16.0 0.00 0.49 0.48 84 1012.5
20260830141555 75 214 5.0 11.0 0.00 0.49 0.48 86 1012.7
20260830141036 74 200 5.0 10.0 0.00 0.49 0.48 86 1012.7
20260830140536 74 221 4.0 10.0 0.00 0.49 0.48 86 1012.9
20260830140054 73 219 5.0 10.0 0.00 0.49 0.48 87 1012.8
20260830135540 73 209 5.0 11.0 0.00 0.49 0.48 87 1012.8
20260830135037 73 202 5.0 15.0 0.00 0.49 0.48 88 1012.7
20260830134558 72 228 6.0 15.0 0.00 0.49 0.48 89 1013.0
20260830134036 72 211 5.0 13.0 0.00 0.49 0.48 89 1012.8
20260830133536 71 198 5.0 12.0 0.00 0.49 0.48 90 1013.1
20260830133104 71 147 6.0 11.0 0.00 0.49 0.48 91 1013.1
20260830132537 71 223 6.0 10.0 0.00 0.49 0.48 92 1013.1
20260830132042 70 188 4.0 9.0 0.00 0.49 0.48 93 1013.2
20260830131555 70 217 3.0 9.0 0.00 0.49 0.48 94 1013.3
20260830131036 70 186 4.0 9.0 0.00 0.49 0.48 94 1013.4
20260830130541 70 211 3.0 7.0 0.00 0.49 0.48 95 1013.4
20260830130114 69 186 4.0 6.0 0.00 0.49 0.48 95 1013.5
20260830125536 69 199 3.0 7.0 0.00 0.49 0.48 95 1013.4
20260830125039 69 202 4.0 7.0 0.00 0.49 0.48 95 1013.6
20260830124600 69 184 2.0 6.0 0.00 0.49 0.48 95 1013.5
20260830124037 69 206 3.0 6.0 0.00 0.49 0.48 95 1013.6
20260830123536 69 209 2.0 7.0 0.00 0.49 0.48 95 1013.7
20260830123059 69 215 3.0 7.0 0.00 0.49 0.48 95 1013.9
20260830122536 69 217 3.0 7.0 0.00 0.49 0.48 95 1013.9
20260830122037 68 186 3.0 7.0 0.00 0.49 0.48 95 1013.8
20260830121556 68 215 3.0 8.0 0.00 0.49 0.48 95 1013.8
20260830121042 68 217 3.0 8.0 0.00 0.49 0.48 95 1013.7
20260830120536 68 215 3.0 10.0 0.00 0.49 0.48 96 1013.6
20260830120101 68 206 4.0 10.0 0.00 0.49 0.48 96 1013.5
20260830115536 68 206 2.0 6.0 0.00 0.49 0.48 96 1013.5
20260830115036 68 203 3.0 6.0 0.00 0.49 0.48 96 1013.6
20260830114600 68 207 2.0 7.0 0.00 0.49 0.48 96 1013.6
20260830114035 68 215 3.0 7.0 0.00 0.49 0.48 96 1013.5
20260830113535 68 217 2.0 7.0 0.00 0.49 0.48 96 1013.4
20260830113052 68 200 3.0 8.0 0.00 0.49 0.48 96 1013.3
20260830112535 68 200 2.0 8.0 0.00 0.49 0.48 95 1013.3
20260830112036 68 198 2.0 8.0 0.00 0.49 0.48 95 1013.3
20260830111550 68 202 2.0 7.0 0.00 0.49 0.48 95 1013.2
20260830111036 68 216 2.0 7.0 0.00 0.49 0.48 94 1013.0
20260830110536 68 211 3.0 8.0 0.00 0.49 0.48 94 1013.0
20260830105539 69 196 3.0 10.0 0.00 0.49 0.48 93 1012.8
20260830105036 69 217 4.0 9.0 0.00 0.49 0.48 92 1012.9
20260830104557 69 206 3.0 13.0 0.00 0.49 0.48 92 1012.8
20260830104036 69 190 6.0 14.0 0.00 0.49 0.48 92 1012.7
20260830103540 69 205 5.0 14.0 0.00 0.49 0.48 92 1012.9
20260830103057 68 200 5.0 11.0 0.00 0.49 0.48 93 1012.8
20260830102534 68 175 4.0 11.0 0.00 0.49 0.48 94 1012.8
20260830102033 68 243 3.0 8.0 0.00 0.49 0.48 94 1012.9
20260830101555 68 207 3.0 10.0 0.02 0.49 0.48 94 1012.8
20260830101033 68 196 4.0 10.0 0.04 0.49 0.48 94 1013.0
20260830100537 68 192 2.0 9.0 0.04 0.49 0.48 94 1012.7
20260830100104 68 192 3.0 9.0 0.07 0.49 0.48 94 1012.7
20260830095539 68 191 4.0 9.0 0.22 0.49 0.48 93 1012.7
20260830095036 69 170 3.0 10.0 0.42 0.49 0.48 93 1013.0
20260830094555 69 210 4.0 14.0 0.48 0.49 0.48 93 1012.9
20260830094034 69 188 4.0 14.0 0.48 0.49 0.48 92 1013.0
20260830093534 69 154 4.0 14.0 0.48 0.49 0.48 92 1013.1
20260830093053 69 165 4.0 14.0 0.48 0.49 0.48 92 1013.2
20260830092536 69 161 6.0 13.0 0.48 0.49 0.48 91 1013.3
20260830092037 69 167 4.0 9.0 0.47 0.48 0.47 92 1013.5
20260830091556 69 208 4.0 9.0 0.45 0.46 0.45 92 1013.9
20260830091037 69 165 2.0 18.0 0.44 0.45 0.44 93 1013.9
20260830090539 69 0 5.0 18.0 0.44 0.45 0.44 92 1014.0
20260830090057 69 190 7.0 24.0 0.39 0.40 0.39 93 1013.9
20260830085536 69 224 12.0 24.0 0.25 0.26 0.25 92 1013.9
20260830085033 70 190 4.0 11.0 0.04 0.05 0.04 88 1014.3
20260830084619 70 225 1.0 6.0 0.00 0.01 0.00 88 1014.1
20260830084033 70 0 1.0 8.0 0.00 0.01 0.00 88 1013.7
20260830083534 70 222 4.0 8.0 0.00 0.01 0.00 88 1013.4
20260830083101 70 186 2.0 10.0 0.00 0.01 0.00 88 1013.2
20260830082534 70 199 3.0 10.0 0.00 0.01 0.00 88 1013.1
20260830082036 70 190 4.0 10.0 0.00 0.01 0.00 88 1013.0
20260830081630 70 207 5.0 10.0 0.00 0.01 0.00 88 1013.0
20260830081036 70 205 4.0 10.0 0.00 0.01 0.00 87 1013.0
20260830080536 70 194 5.0 10.0 0.00 0.01 0.00 87 1013.0
20260830080105 70 189 4.0 10.0 0.00 0.01 0.00 87 1013.0
20260830075537 70 184 4.0 10.0 0.00 0.01 0.00 87 1013.0
20260830075035 70 221 5.0 10.0 0.00 0.01 0.00 87 1013.2
20260830074612 70 178 3.0 8.0 0.00 0.01 0.00 88 1013.2
20260830074034 70 223 2.0 7.0 0.00 0.01 0.00 88 1013.2
20260830073534 70 217 2.0 6.0 0.00 0.01 0.00 88 1013.4
20260830073050 69 207 3.0 7.0 0.00 0.01 0.00 88 1013.4
20260830072537 70 201 2.0 7.0 0.00 0.01 0.00 88 1013.5
20260830072037 70 202 3.0 8.0 0.00 0.01 0.00 88 1013.8
20260830071606 70 216 3.0 8.0 0.00 0.01 0.00 88 1013.9
20260830071037 70 202 3.0 9.0 0.00 0.01 0.00 87 1014.0
20260830070536 70 209 4.0 10.0 0.00 0.01 0.00 87 1014.1
20260830070056 70 207 4.0 10.0 0.00 0.01 0.00 87 1014.1
20260830065536 70 193 4.0 9.0 0.00 0.01 0.00 87 1014.0
20260830065036 70 192 4.0 10.0 0.00 0.01 0.00 87 1014.2
20260830064553 70 199 5.0 10.0 0.00 0.01 0.00 86 1014.4
20260830064033 71 213 4.0 10.0 0.00 0.01 0.00 86 1014.4
20260830063533 71 184 3.0 10.0 0.00 0.01 0.00 86 1014.5
20260830063049 70 202 4.0 10.0 0.00 0.01 0.00 86 1014.7
20260830062535 70 201 2.0 7.0 0.00 0.01 0.00 86 1014.9
20260830062035 70 221 3.0 7.0 0.00 0.01 0.00 86 1014.8
20260830061554 70 200 4.0 9.0 0.00 0.01 0.00 86 1014.6
20260830061036 70 209 4.0 9.0 0.00 0.01 0.00 86 1014.5
20260830060533 70 179 4.0 9.0 0.00 0.01 0.00 87 1014.6
20260830060054 70 194 3.0 9.0 0.00 0.01 0.00 87 1014.7
20260830055536 70 178 3.0 9.0 0.00 0.01 0.00 87 1014.7
20260830055033 70 188 2.0 12.0 0.00 0.01 0.00 87 1014.7
20260830054602 70 209 4.0 12.0 0.00 0.01 0.00 87 1014.8
20260830054035 70 207 3.0 8.0 0.00 0.01 0.00 88 1014.8
20260830053536 69 182 3.0 8.0 0.00 0.01 0.00 89 1014.8
20260830053055 69 182 3.0 8.0 0.00 0.01 0.00 89 1014.9
20260830052537 69 191 1.0 8.0 0.00 0.01 0.00 89 1014.9
20260830052036 69 210 4.0 8.0 0.00 0.01 0.00 90 1015.0
20260830051557 69 187 2.0 6.0 0.00 0.01 0.00 90 1015.0
20260830051036 69 184 1.0 5.0 0.00 0.01 0.00 90 1015.1
20260830050534 69 184 1.0 5.0 0.00 0.01 0.00 90 1015.0
20260830050054 69 0 0.0 5.0 0.00 0.01 0.00 90 1015.1
20260830045533 69 234 2.0 5.0 0.00 0.01 0.01 90 1015.1
20260830045032 69 185 1.0 5.0 0.00 0.01 0.01 90 1015.2
20260830044556 69 185 1.0 5.0 0.00 0.01 0.01 90 1015.2
20260830044040 69 174 2.0 5.0 0.00 0.01 0.01 90 1015.1
20260830043537 69 173 1.0 5.0 0.00 0.01 0.01 90 1015.1
20260830043102 69 192 1.0 4.0 0.00 0.01 0.01 90 1014.9
20260830042534 69 204 1.0 4.0 0.00 0.01 0.01 90 1015.0
20260830042035 69 198 1.0 5.0 0.00 0.01 0.01 90 1015.1
20260830041553 69 198 2.0 5.0 0.00 0.01 0.01 90 1015.1
20260830041034 69 0 0.0 5.0 0.00 0.01 0.01 89 1015.1
20260830040533 69 0 0.0 5.0 0.00 0.01 0.01 90 1015.1
20260830040058 69 0 0.0 5.0 0.00 0.01 0.01 89 1015.1
20260830035534 69 0 1.0 6.0 0.00 0.01 0.01 89 1015.2
20260830035033 69 183 2.0 6.0 0.00 0.01 0.01 89 1015.1
20260830034557 69 193 3.0 6.0 0.00 0.01 0.01 89 1015.2
20260830034038 70 168 2.0 8.0 0.00 0.01 0.01 89 1015.2
20260830033540 70 197 2.0 8.0 0.00 0.01 0.01 89 1015.0
20260830033057 70 212 2.0 7.0 0.00 0.01 0.01 89 1015.0
20260830032536 70 202 2.0 12.0 0.00 0.01 0.01 89 1015.0
20260830032036 70 192 2.0 12.0 0.00 0.01 0.01 89 1015.0
20260830031554 70 180 2.0 9.0 0.00 0.01 0.01 89 1014.9
20260830031034 70 167 4.0 10.0 0.00 0.01 0.01 89 1014.9
20260830030534 70 208 2.0 15.0 0.00 0.01 0.01 88 1014.9
20260830030051 70 196 4.0 15.0 0.00 0.01 0.01 88 1014.7
20260830025536 70 195 5.0 13.0 0.00 0.01 0.01 88 1014.7
20260830025037 70 190 4.0 13.0 0.00 0.01 0.01 88 1014.6
20260830024554 70 194 5.0 11.0 0.00 0.01 0.01 88 1014.7
20260830024038 70 223 3.0 9.0 0.00 0.01 0.01 88 1014.8
20260830023533 70 213 4.0 10.0 0.00 0.01 0.01 88 1014.7
20260830023110 70 179 4.0 10.0 0.00 0.01 0.01 88 1014.7
20260830022534 70 167 4.0 9.0 0.00 0.01 0.01 89 1014.7
20260830022035 70 172 2.0 11.0 0.00 0.01 0.01 89 1014.6
20260830021559 70 219 3.0 11.0 0.00 0.01 0.01 89 1014.7
20260830021035 70 174 3.0 11.0 0.00 0.01 0.01 89 1014.5
20260830020534 70 190 3.0 8.0 0.00 0.01 0.01 89 1014.6
20260830020055 70 157 4.0 10.0 0.00 0.01 0.01 89 1014.6
20260830015537 70 163 3.0 11.0 0.00 0.01 0.01 89 1014.7
20260830015037 70 171 4.0 11.0 0.00 0.01 0.01 89 1014.6
20260830014554 70 172 4.0 9.0 0.00 0.01 0.01 89 1014.6
20260830014035 70 176 3.0 9.0 0.00 0.01 0.01 89 1014.6
20260830013534 70 0 3.0 9.0 0.00 0.01 0.01 89 1014.6
20260830013100 70 151 4.0 9.0 0.00 0.01 0.01 89 1014.6
20260830012536 70 179 4.0 11.0 0.00 0.01 0.01 90 1014.7
20260830012037 70 176 4.0 11.0 0.00 0.01 0.01 90 1014.7
20260830011559 70 163 3.0 10.0 0.00 0.01 0.01 90 1014.9
20260830011033 70 165 4.0 10.0 0.00 0.01 0.01 90 1014.9
20260830010539 70 207 2.0 12.0 0.00 0.01 0.01 90 1014.7
20260830010055 70 177 4.0 12.0 0.00 0.01 0.01 90 1014.5
20260830005533 70 165 3.0 9.0 0.00 0.01 0.01 90 1014.6
20260830005037 70 149 3.0 7.0 0.00 0.01 0.01 90 1014.5
20260830004609 70 154 3.0 8.0 0.00 0.01 0.01 90 1014.6
20260830004034 70 158 3.0 9.0 0.00 0.01 0.01 90 1014.6
20260830003534 70 153 3.0 9.0 0.00 0.01 0.01 90 1014.7
20260830003100 70 180 3.0 7.0 0.00 0.01 0.01 90 1014.8
20260830002534 70 170 3.0 7.0 0.00 0.01 0.01 90 1014.9
20260830002037 71 165 3.0 7.0 0.00 0.01 0.01 90 1014.9
20260830001553 71 173 1.0 6.0 0.00 0.01 0.01 90 1015.0